Tracking 19638 objects as of 20-May-2019
HD Live streaming from Space Station
objects crossing your sky now

OPS 9794 (NAVSTAR 8)

Track OPS 9794 (NAVSTAR 8) now!
OPS 9794 (NAVSTAR 8) is classified as:


NORAD ID: 14189
Int'l Code: 1983-072A
Perigee: 20,525.3 km
Apogee: 21,474.8 km
Inclination: 62.2 °
Period: 751.1 minutes
Semi major axis: 27371 km
RCS: 0.4806 m2 (medium)
Launch date: July 14, 1983
Source: United States (US)
Launch site: AIR FORCE WESTERN TEST RANGE (AFWTR)
aabbcc
Your satellite tracking list
Your tracking list is empty




NASA's NSSDC Master Catalog

Two Line Element Set (TLE):
1 14189U 83072A   19137.62732660  .00000080  00000-0  00000+0 0  9993
2 14189  62.2294 143.8208 0173450  41.0727 135.8720  1.91719347177190
Source of the keplerian elements: AFSPC